www.pogodaiklimat.ru
ПОГОДА в Сан-Мигель-де-Тукумане
Время
(UTC), дата
03 17.01
06 17.01
09 17.01
12 17.01
15 17.01
18 17.01
21 17.01
00 18.01
03 18.01
06 18.01
09 18.01
12 18.01
15 18.01
18 18.01
21 18.01
00 19.01
03 19.01
06 19.01
09 19.01
12 19.01
15 19.01
18 19.01
21 19.01
00 20.01
03 20.01
06 20.01
09 20.01
12 20.01
15 20.01
18 20.01
21 20.01
00 21.01
03 21.01
06 21.01
09 21.01
12 21.01
15 21.01
18 21.01
21 21.01
00 22.01
03 22.01
06 22.01
09 22.01
12 22.01
15 22.01
18 22.01
21 22.01
00 23.01
03 23.01
06 23.01
09 23.01
12 23.01
15 23.01
18 23.01
21 23.01
00 24.01
Ветер
(напр.,м/с)
Видим. Явления Облачность Т
(С)
Тd
(С)
f
(%)
Тe
(С)
Тes
(С)
Комфортность P
(гПа)
Po
(гПа)
Тmin
(С)
Tmax
(С)
R
(мм)
R24
(мм)
S
(см)
С 3 10 км 10/4 1050 м
[Sc Ac As]
+20.4 +18.2 87 +24 +24 комфорт 1020.7 969.2
С 2 10 км 10/4 900 м
[Sc Ac As]
+19.7 +17.0 84 +23 +23 комфорт 1019.1 967.7
С 2 10 км 10/5 750 м
[Sc Ac As]
+19.3 +16.7 85 +22 +22 комфорт 1018.5 967.3
С 5 15 км 10/10 1350 м
[Sc]
+21.2 +16.7 75 +25 +25 комфорт 1019.2 968.0 +19.2 +21.2 0.2
В 5 15 км 10/10 1200 м
[Sc]
+22.8 +16.6 68 +27 +27 душно 1018.4 967.4
В 4 12 км 10/8 1200 м
[Sc Ac trans]
+23.4 +17.3 69 +29 +30 душно 1016.3 965.4
В 2 12 км 10/10 900 м
[Sc diur, vesp]
+24.2 +18.7 71 +29 +29 душно 1013.2 962.5
Ю 3 10 км в посл. час морось 10/10 750 м
[Sc]
+20.1 +18.4 90 +24 +24 комфорт 1014.7 963.7 +20.1 +24.6 0.0
С 2 8000 м осадки на расстоянии 10/10 1050 м
[Sc]
+19.4 +17.8 90 +22 +22 комфорт 1015.3 964.4
Ю 2 5000 м слаб. морось туман 10/10 180 м
[Frnb]
+19.5 +18.6 95 +23 +23 комфорт 1013.0 962.2 0.0
ЮЗ 2 6000 м дымка 10/10 120 м
[Frnb]
+19.6 +18.7 95 +23 +23 комфорт 1012.7 962.0
штиль 0 8000 м дымка 10/10 240 м
[Frnb]
+20.4 +18.2 87 +24 +24 комфорт 1014.1 963.0 +19.2 +20.4 0.0
В 2 8000 м мгла 8/5 600 м
[Cu hum Cs]
+25.4 +20.3 73 +31 +41 очень
душно
1012.7 962.1
В 3 8000 м мгла 9/5 900 м
[Cu hum Ac As Cs]
+27.7 +22.1 72 +36 +41 очень
душно
1010.5 960.2
ЮЗ 4 8000 м осадки на расстоянии 9/6 600 м
[Frnb Cs]
+27.4 +22.2 73 +36 +37 очень
душно
1008.7 958.5
З 2 10 км 9/9 600 м
[Sc]
+24.4 +21.2 82 +31 +31 очень
душно
1009.6 959.2 +20.4 +29.6
С 3 10 км 5/5 1050 м
[Sc]
+23.4 +21.6 90 +32 +32 очень
душно
1011.1 960.9
СВ 1 10 км 5/5 1050 м
[Sc]
+23.0 +21.2 90 +31 +31 очень
душно
1009.3 959.4
ЮЗ 1 10 км 4/0
[Ac trans]
+22.2 +21.0 93 +29 +29 очень
душно
1008.7 958.4
штиль 0 8000 м мгла 9/0
[Cs]
+25.2 +22.3 84 +33 +39 очень
душно
1009.4 959.4 +22.2 +25.2
В 2 8000 м мгла 6/1 900 м
[Cu hum Cs]
+29.9 +22.9 66 +40 +57 опасность
солнечного
удара
1007.9 958.2
Ю 2 8000 м мгла 6/3 900 м
[Cu hum Cs]
+34.2 +25.5 61 +49 +61 опасность
перегрева
1004.7 955.4
ЮЗ 5 8000 м мгла 9/3 900 м
[Cu hum Ac As Cs]
+29.8 +23.6 69 +40 +41 очень
душно
1003.1 953.6
СЗ 1 10 км 10/3 1050 м
[Sc diur, vesp Ac As Cs]
+28.2 +24.3 79 +39 +39 очень
душно
1004.1 954.6 +25.2 +34.2
С 3 10 км 4/0
[Ac trans Cs]
+26.8 +24.6 88 +38 +38 очень
душно
1005.8 956.5
С 3 12 км 4/0
[Ac trans Cs]
+26.6 +23.9 85 +37 +37 очень
душно
1003.8 955.0
С 3 12 км 9/0
[Cs]
+25.8 +23.5 87 +35 +35 очень
душно
1004.0 954.6
С 4 12 км 9/0
[Cs]
+29.4 +24.2 74 +41 +44 опасность
перегрева
1004.7 955.6 +25.5 +29.4
В 2 12 км 1/1 1500 м
[Cu med, cong]
+33.2 +26.1 66 +49 +68 опасность
перегрева
1004.8 955.8
З 3 12 км 6/1 1500 м
[Cb cap Cs]
+36.6 +25.8 54 +52 +64 опасность
перегрева
1001.4 952.9
СЗ 3 12 км 10/3 1500 м
[Cb cap As op Cs]
+34.7 +27.1 65 +53 +54 опасность
перегрева
1000.4 951.7
СЗ 5 10 км зарница 10/3 1500 м
[Cb cap Ac As Cs]
+28.8 +21.2 64 +36 +36 очень
душно
1000.2 951.3 +28.8 +36.6
С 4 10 км 10/5 1200 м
[Sc Ac As]
+28.4 +21.7 67 +36 +36 очень
душно
1002.2 953.4
СВ 1 10 км 3/0
[Ac As]
+26.6 +22.0 76 +34 +34 очень
душно
1001.3 952.8
Ю 8 500 м сильн. гроза, ливневой дождь 10/8 150 м
[Cb cap As op]
+22.6 +22.0 96 +30 +30 очень
душно
1006.6 957.3
В 1 10 км в посл. час дождь {гроза} 10/4 240 м
[Frnb Ac As]
+22.8 +22.1 96 +31 +32 очень
душно
1009.7 959.8 +21.7 +29.2 28
ЮВ 2 15 км 9/3 750 м
[Cu hum Ac trans Cs]
+27.2 +21.5 71 +35 +43 очень
душно
1009.3 959.8
нст 2 15 км 8/4 750 м
[Cu hum Ci sp]
+29.4 +22.2 65 +38 +48 очень
душно
1007.8 958.4
З 1 12 км 6/3 1050 м
[Cu hum Cs]
+30.8 +23.5 65 +42 +45 опасность
перегрева
1005.9 956.4
СЗ 2 10 км 6/4 1200 м
[Sc Cs]
+28.0 +23.8 78 +39 +39 очень
душно
1006.7 956.9 +22.8 +31.1
С 2 10 км 6/3 1200 м
[Sc Cs]
+24.8 +22.6 88 +33 +33 очень
душно
1009.2 959.4
В 3 10 км 6/6 900 м
[Sc]
+24.4 +20.8 80 +30 +30 очень
душно
1009.3 959.6
ЮЗ 2 10 км в посл. час морось 10/8 240 м
[Frnb As op]
+23.7 +22.4 92 +31 +31 очень
душно
1010.6 960.9
ЮЗ 2 5000 м дымка 10/10 500 м
[Frnb]
+23.4 +21.6 90 +32 +32 очень
душно
1012.0 962.0 +22.7 +28.0 0.3
штиль 0 7000 м в посл. час морось туман 10/10 1050 м
[Sc]
+24.4 +20.7 80 +30 +30 очень
душно
1013.1 962.9
штиль 0 8000 м мгла 6/4 900 м
[Cu hum Cs]
+28.8 +21.7 66 +37 +51 опасность
солнечного
удара
1010.6 960.8 0.0
Ю 3 10 км 5/1 1050 м
[Cu hum Ac trans]
+29.8 +21.7 62 +38 +40 очень
душно
1009.3 959.6
Ю 2 10 км 6/4 1050 м
[Sc Ac und]
+27.0 +23.0 79 +36 +36 очень
душно
1011.0 961.0 +23.4 +30.6
З 1 10 км 6/6 1200 м
[Sc]
+26.2 +23.1 83 +35 +35 очень
душно
1013.1 963.0
В 2 10 км 6/6 1200 м
[Sc]
+24.4 +20.8 80 +30 +30 очень
душно
1012.2 962.2
ЮЗ 1 10 км 5/5 1200 м
[Sc]
+22.6 +20.5 88 +29 +29 очень
душно
1012.9 962.9
штиль 0 8000 м дымка 1/1 1200 м
[Sc]
+25.0 +21.2 79 +32 +38 очень
душно
1013.5 963.4 +22.4 +27.0 0.0
В 3 9000 м мгла 5/5 840 м
[Cu hum]
+28.9 +21.7 65 +37 +45 очень
душно
1012.5 962.8
ЮВ 2 10 км 4/4 1050 м
[Cu hum]
+30.3 +20.8 57 +38 +50 очень
душно
1010.5 960.8
В 3 12 км 1/1 1200 м
[Cu hum]
+31.4 +19.0 48 +37 +40 очень
душно
1008.4 958.8
штиль 0 12 км ясно +27.9 +20.7 65 +35 +35 очень
душно
1009.1 959.4 +25.0 +31.6
Местоположение метеостанции Сан-Мигель-де-Тукуман (Аргентина): широта -26.85 долгота -65.09 высота над уровнем моря 450 м.
В архиве по умолчанию представлена погода в Сан-Мигель-де-Тукумане за последнюю неделю. Архивные данные за месяц целиком и за предыдущие месяцы, начиная с января 2011 года, Вы можете получить, выбрав интересующий диапазон дат из раскрывающегося списка и нажав кнопку "Найти!".
*Определитесь, кто Вы:
Внимание! Время в таблицах - всемирное. Для получения местного времени необходимо прибавить поправку, которая равна -3 ч.
Смотрите также архив погоды в соседних городах и на ближайших метеорологических станциях:
Партнеры нашего сайта:      
Пояснения к столбцам:
  • Ветер - указаны скорость ветра в м/с - средняя за 10 мин, порывы в срок и между сроками (в фигурных скобках) и направление, откуда дует ветер: С - северный,
  • СВ - северо-восточный, В - восточный, ЮВ - юго-восточный, Ю - южный, ЮЗ - юго-западный, З - западный, СЗ - северо-западный.
  • Видимость - горизонтальная дальность видимости в метрах или километрах. При видимости от 1 до 10 км при отсутствии осадков обычно наблюдается дымка, при ухудшении видимости до 1 км и менее - туман. В сухую погоду видимость может ухудшаться дымом, пылью или мглою.
  • Явления - указаны атмосферные явления, наблюдавшиеся в срок или в последний час перед сроком; фигурными скобками обозначены явления, наблюдавшиеся между сроками (за 1-3 часа до срока); квадратными скобками обозначены град или гололедные отложения с указанием их диаметра в мм.
  • Облачность - указаны через наклонную черту общая и нижняя облачность в баллах и высота нижней границы облаков в метрах; квадратными скобками обозначены формы облаков: Ci - перистые, Cs - перисто-слоистые, Cc - перисто-кучевые, Ac - высококучевые, As - высокослоистые, Sc - слоисто-кучевые, Ns - слоисто-дождевые, Cu - кучевые, Cb - кучево-дождевые. Подробнее классификацию облаков см. в Атласе облаков (PDF).
  • T - Температура воздуха - температура, измеренная на высоте 2 м над землей.
  • Td - Температура точки росы - температура, при понижении до которой содержащийся в воздухе водяной пар достигнет насыщения.
  • f - Относительная влажность воздуха - влажноcть воздуха, измеренная на высоте 2 м над землей.
  • Te - Эффективная температура - температура, которую ощущает одетый по сезону человек в тени. Характеристика душности погоды. При расчете учитывается влияние влажности воздуха и скорости ветра на теплоощущения человека.
  • Tes - Эффективная температура на солнце - температура, которую ощущает человек, с поправкой на солнечный нагрев. Характеристика знойности погоды. Зависит от высоты солнца над горизонтом, облачности и скорости ветра. Ночью, в пасмурную погоду, а также при ветре 12 м/с и более поправка равна нулю.
  • P - Атмосферное давление - приведенное к уровню моря атмосферное давление.
  • Po - Атмосферное давление - измеренное на уровне метеостанции атмосферное давление.
  • Tmin - Минимальная температура - минимум температуры воздуха на высоте 2 м над землей.
  • Tmax - Максимальная температура - максимум температуры воздуха на высоте 2 м над землей.
  • R - Количество осадков - Количество выпавших осадков за период времени, мм. При наведении курсора мыши на число - период времени, за который выпало указанное количество осадков.
  • R24 - Количество осадков - Количество выпавших осадков за 24 часа, мм.
  • S - Снежный покров - Высота снежного покрова, см. При наведении курсора мыши на число - состояние снежного покрова и степень покрытия местности в баллах.